GW3384 Weather Reports


time (UTC)temp
C
wind
direction
speed
KPH
gust
KPH
rain 1hr
cm
rain 24hr
cm
rain mn
cm
humidity
%
barometer
mb
20260505065558 18 12 0.0 0.0 0.00 0.00 0.00 98 1010.1
20260505065054 18 12 0.0 0.0 0.00 0.00 0.00 98 1010.0
20260505064551 18 12 0.0 0.0 0.00 0.00 0.00 98 1010.2
20260505064050 18 12 0.0 0.0 0.00 0.00 0.00 98 1010.2
20260505063547 18 12 0.0 0.0 0.00 0.00 0.00 98 1010.2
20260505063042 18 12 0.0 0.0 0.00 0.00 0.00 97 1010.4
20260505062539 18 12 0.0 0.0 0.00 0.00 0.00 97 1010.6
20260505062037 18 12 0.0 0.0 0.00 0.00 0.00 97 1010.7
20260505061534 18 12 0.0 0.0 0.00 0.00 0.00 96 1010.8
20260505061032 18 12 0.0 0.0 0.00 0.00 0.00 96 1010.4
20260505060529 18 12 0.0 0.0 0.00 0.00 0.00 96 1010.5
20260505060026 18 12 0.0 0.0 0.00 0.00 0.00 96 1010.5
20260505055521 18 12 0.0 0.0 0.00 0.00 0.00 96 1010.8
20260505055018 18 12 0.0 0.0 0.00 0.00 0.00 96 1010.7
20260505054515 18 12 0.0 0.0 0.00 0.00 0.00 96 1010.8
20260505054013 18 12 0.0 0.0 0.00 0.00 0.00 95 1010.7
20260505053510 18 10 0.0 0.0 0.00 0.00 0.00 96 1011.0
20260505053007 18 10 0.0 0.0 0.00 0.00 0.00 96 1011.0
20260505052504 18 10 0.0 0.0 0.00 0.00 0.00 96 1010.8
20260505052001 18 10 0.0 0.0 0.00 0.00 0.00 96 1011.0
20260505051458 18 11 0.0 0.0 0.00 0.00 0.00 96 1011.0
20260505050956 18 10 0.0 0.0 0.00 0.00 0.00 96 1011.0
20260505050454 18 10 0.0 0.0 0.00 0.00 0.00 96 1011.2
20260505041421 18 12 0.0 0.0 0.00 0.00 0.00 93 1011.3
20260505040918 18 12 0.0 0.0 0.00 0.00 0.00 92 1011.3
20260505040416 19 12 0.0 0.0 0.00 0.00 0.00 92 1011.5
20260505035913 19 12 0.0 0.0 0.00 0.00 0.00 92 1011.4
20260505035409 19 11 0.0 0.0 0.00 0.00 0.00 91 1011.4
20260505034906 19 12 0.0 0.0 0.00 0.00 0.00 90 1011.3
20260505034403 19 12 0.0 0.0 0.00 0.00 0.00 90 1011.3
20260505033900 19 9 0.0 0.0 0.00 0.00 0.00 90 1011.1
20260505033356 20 9 0.0 0.0 0.00 0.00 0.00 90 1011.5
20260505032855 20 0 0.0 0.0 0.00 0.00 0.00 89 1011.4
20260505032351 20 3 0.0 0.0 0.00 0.00 0.00 89 1011.5
20260505031848 20 5 0.0 0.0 0.00 0.00 0.00 88 1011.7
20260505031344 20 5 0.0 0.0 0.00 0.00 0.00 88 1011.5
20260505030842 20 14 0.0 0.0 0.00 0.00 0.00 87 1011.4
20260505030337 20 34 0.0 0.0 0.00 0.00 0.00 87 1011.3
20260505025833 20 37 0.0 0.0 0.00 0.00 0.00 86 1011.3
20260505025331 20 44 0.0 1.6 0.00 0.00 0.00 85 1011.1
20260505024829 20 17 0.0 0.0 0.00 0.00 0.00 86 1011.2
20260505024327 20 46 1.6 1.6 0.00 0.00 0.00 85 1011.1
20260505023824 21 27 0.0 0.0 0.00 0.00 0.00 84 1011.2
20260505023321 21 34 0.0 0.0 0.00 0.00 0.00 84 1011.0
20260505022818 21 40 0.0 0.0 0.00 0.00 0.00 83 1011.0
20260505022315 21 67 1.6 1.6 0.00 0.00 0.00 82 1011.2
20260505021812 21 148 4.8 4.8 0.00 0.00 0.00 81 1011.0
20260505021309 21 31 1.6 1.6 0.00 0.00 0.00 83 1010.9
20260505020804 21 48 1.6 1.6 0.00 0.00 0.00 82 1010.7
20260505020300 21 46 0.0 1.6 0.00 0.00 0.00 82 1010.8
20260505015757 21 19 0.0 0.0 0.00 0.00 0.00 82 1010.9
20260505015254 21 64 0.0 1.6 0.00 0.00 0.00 81 1010.9
20260505014751 21 66 1.6 1.6 0.00 0.00 0.00 81 1010.8
20260505014243 21 54 1.6 1.6 0.00 0.00 0.00 81 1010.9
20260505013739 21 35 1.6 1.6 0.00 0.00 0.00 81 1010.8
20260505013236 21 280 1.6 1.6 0.00 0.00 0.00 80 1010.5
20260505012734 21 36 0.0 0.0 0.00 0.00 0.00 80 1010.6
20260505012231 21 56 1.6 1.6 0.00 0.00 0.00 80 1010.4
20260505011727 22 36 0.0 0.0 0.00 0.00 0.00 78 1010.6
20260505011225 22 54 1.6 1.6 0.00 0.00 0.00 78 1010.5
20260505010720 22 35 0.0 0.0 0.00 0.00 0.00 78 1010.7
20260505010217 22 38 0.0 0.0 0.00 0.00 0.00 77 1010.6
20260505005713 22 29 0.0 0.0 0.00 0.00 0.00 78 1010.6
20260505005210 22 264 1.6 3.2 0.00 0.00 0.00 77 1010.5
20260505004707 22 357 0.0 1.6 0.00 0.00 0.00 77 1010.6
20260505004204 22 70 1.6 1.6 0.00 0.00 0.00 76 1010.5
20260505003701 23 25 0.0 1.6 0.00 0.00 0.00 75 1010.6
20260505003159 23 38 1.6 1.6 0.00 0.00 0.00 73 1010.6
20260505002655 23 55 0.0 1.6 0.00 0.00 0.00 73 1010.6
20260505002153 23 47 1.6 1.6 0.00 0.00 0.00 74 1010.7
20260505001649 23 50 1.6 1.6 0.00 0.00 0.00 73 1010.8
20260505001147 23 34 1.6 1.6 0.00 0.00 0.00 72 1010.5
20260505000644 23 92 1.6 3.2 0.00 0.00 0.00 72 1010.8
20260505000142 23 36 0.0 0.0 0.00 0.00 0.00 72 1010.7
20260504235638 23 52 0.0 1.6 0.00 0.00 0.00 72 1010.8
20260504235135 23 324 3.2 4.8 0.00 0.00 0.00 71 1010.8
20260504234632 23 38 0.0 0.0 0.00 0.00 0.00 71 1010.9
20260504234129 24 40 0.0 1.6 0.00 0.00 0.00 70 1011.1
20260504233625 24 41 1.6 3.2 0.00 0.00 0.00 70 1010.9
20260504233120 24 135 0.0 1.6 0.00 0.00 0.00 69 1011.1
20260504232619 24 85 1.6 1.6 0.00 0.00 0.00 69 1011.2
20260504232116 24 77 3.2 3.2 0.00 0.00 0.00 68 1011.5
20260504231612 25 43 1.6 1.6 0.00 0.00 0.00 68 1011.2
20260504231108 25 46 0.0 0.0 0.00 0.00 0.00 68 1011.4
20260504230604 25 64 1.6 1.6 0.00 0.00 0.00 67 1011.2
20260504230104 25 71 1.6 3.2 0.00 0.00 0.00 68 1011.4
20260504225600 25 75 1.6 3.2 0.00 0.00 0.00 67 1011.2
20260504225057 25 359 0.0 1.6 0.00 0.00 0.00 67 1011.4
20260504224554 25 45 0.0 1.6 0.00 0.00 0.00 65 1011.4
20260504224051 26 34 1.6 1.6 0.00 0.00 0.00 65 1011.6
20260504223548 26 97 0.0 1.6 0.00 0.00 0.00 63 1011.6
20260504223043 25 166 1.6 1.6 0.00 0.00 0.00 64 1011.5
20260504222541 26 92 3.2 3.2 0.00 0.00 0.00 63 1011.4
20260504222038 26 115 3.2 3.2 0.00 0.00 0.00 62 1011.5
20260504221535 26 290 3.2 3.2 0.00 0.00 0.00 61 1011.7
20260504221032 26 252 3.2 4.8 0.00 0.00 0.00 63 1011.5
20260504220529 27 96 4.8 6.4 0.00 0.00 0.00 63 1011.3
20260504220026 26 82 1.6 3.2 0.00 0.00 0.00 60 1011.5
20260504215522 26 276 1.6 3.2 0.00 0.00 0.00 62 1011.7
20260504215020 27 97 3.2 3.2 0.00 0.00 0.00 59 1011.8
20260504214515 27 296 1.6 1.6 0.00 0.00 0.00 60 1011.7
20260504214012 27 198 6.4 6.4 0.00 0.00 0.00 60 1011.9
20260504213508 26 72 4.8 6.4 0.00 0.00 0.00 63 1011.9
20260504213006 26 27 1.6 1.6 0.00 0.00 0.00 63 1012.1
20260504212501 27 45 1.6 3.2 0.00 0.00 0.00 61 1012.2
20260504211959 26 124 0.0 0.0 0.00 0.00 0.00 61 1012.0
20260504211455 27 129 6.4 9.7 0.00 0.00 0.00 63 1012.3
20260504210953 26 83 1.6 3.2 0.00 0.00 0.00 62 1012.1
20260504210450 27 166 3.2 4.8 0.00 0.00 0.00 62 1012.1
20260504205947 27 228 4.8 9.7 0.00 0.00 0.00 59 1012.2
20260504205445 26 277 1.6 3.2 0.00 0.00 0.00 61 1012.5
20260504204943 26 41 1.6 1.6 0.00 0.00 0.00 63 1012.6
20260504204440 26 242 4.8 4.8 0.00 0.00 0.00 59 1012.7
20260504203939 26 23 1.6 1.6 0.00 0.00 0.00 60 1012.9
20260504203436 27 82 3.2 4.8 0.00 0.00 0.00 60 1012.6
20260504202932 27 82 3.2 3.2 0.00 0.00 0.00 60 1012.8
20260504202429 27 185 1.6 3.2 0.00 0.00 0.00 59 1012.6
20260504201926 28 83 3.2 3.2 0.00 0.00 0.00 57 1012.8
20260504201423 27 82 1.6 1.6 0.00 0.00 0.00 58 1013.0
20260504200921 27 276 3.2 3.2 0.00 0.00 0.00 58 1013.0
20260504200417 27 288 11.3 12.9 0.00 0.00 0.00 56 1013.3
20260504195914 26 78 4.8 6.4 0.00 0.00 0.00 61 1013.1
20260504195409 27 96 4.8 6.4 0.00 0.00 0.00 58 1013.3
20260504194906 27 341 1.6 1.6 0.00 0.00 0.00 61 1013.3
20260504194402 27 344 0.0 0.0 0.00 0.00 0.00 57 1013.6
20260504193858 27 160 3.2 3.2 0.00 0.00 0.00 57 1013.3
20260504193355 27 219 6.4 9.7 0.00 0.00 0.00 56 1013.7
20260504192854 26 117 1.6 1.6 0.00 0.00 0.00 56 1013.8
20260504192352 26 220 3.2 4.8 0.00 0.00 0.00 61 1013.7
20260504191850 27 86 3.2 3.2 0.00 0.00 0.00 60 1013.6
20260504191348 26 32 0.0 1.6 0.00 0.00 0.00 60 1013.8
20260504190843 26 121 1.6 3.2 0.00 0.00 0.00 60 1014.0
20260504190339 26 219 3.2 4.8 0.00 0.00 0.00 57 1013.9
20260504185836 27 126 3.2 3.2 0.00 0.00 0.00 61 1014.2
20260504185333 26 341 3.2 3.2 0.00 0.00 0.00 58 1014.1
20260504184829 26 60 1.6 1.6 0.00 0.00 0.00 57 1014.2
20260504184325 26 257 8.0 11.3 0.00 0.00 0.00 60 1014.3
20260504183820 26 270 4.8 4.8 0.00 0.00 0.00 56 1014.0
20260504183318 26 272 6.4 6.4 0.00 0.00 0.00 62 1014.0
20260504182816 25 55 1.6 3.2 0.00 0.00 0.00 62 1014.5
20260504182313 26 238 4.8 4.8 0.00 0.00 0.00 59 1014.5
20260504181810 26 92 0.0 1.6 0.00 0.00 0.00 58 1014.4
20260504181307 26 228 9.7 12.9 0.00 0.00 0.00 55 1014.7
20260504180807 26 245 6.4 12.9 0.00 0.00 0.00 61 1014.6
20260504180304 25 58 1.6 1.6 0.00 0.00 0.00 60 1014.7
20260504175802 25 306 1.6 3.2 0.00 0.00 0.00 62 1014.8
20260504175258 26 10 0.0 1.6 0.00 0.00 0.00 61 1014.8
20260504174757 26 50 1.6 1.6 0.00 0.00 0.00 61 1014.9
20260504174254 26 154 4.8 6.4 0.00 0.00 0.00 62 1015.0
20260504173750 26 66 1.6 3.2 0.00 0.00 0.00 62 1014.9
20260504173247 25 159 4.8 4.8 0.00 0.00 0.00 60 1015.2
20260504172744 25 54 1.6 1.6 0.00 0.00 0.00 65 1015.0
20260504172241 25 18 1.6 1.6 0.00 0.00 0.00 62 1015.1
20260504171737 25 177 3.2 3.2 0.00 0.00 0.00 62 1015.1
20260504171234 25 110 4.8 4.8 0.00 0.00 0.00 63 1015.4
20260504170731 25 65 6.4 11.3 0.00 0.00 0.00 61 1015.2
20260504170228 25 102 3.2 4.8 0.00 0.00 0.00 64 1015.2
20260504160147 23 87 3.2 3.2 0.00 0.00 0.00 64 1016.1
20260504151114 22 235 4.8 11.3 0.00 0.00 0.00 66 1016.3
20260504150612 22 301 1.6 3.2 0.00 0.00 0.00 66 1016.5
20260504150109 22 211 3.2 3.2 0.00 0.00 0.00 67 1016.4
20260504141037 20 21 0.0 0.0 0.00 0.00 0.00 77 1016.6
20260504140534 19 64 1.6 1.6 0.00 0.00 0.00 78 1016.5
20260504130458 12 37 0.0 0.0 0.00 0.00 0.00 99 1016.4
20260504110345 10 37 0.0 0.0 0.00 0.00 0.00 99 1016.2
20260504100303 10 37 0.0 0.0 0.00 0.00 0.00 99 1016.4
20260504081656 11 37 0.0 0.0 0.00 0.00 0.00 99 1016.8
20260504081152 11 37 0.0 0.0 0.00 0.00 0.00 99 1016.7
20260504080649 11 37 0.0 0.0 0.00 0.00 0.00 99 1016.7
20260504080145 11 37 0.0 0.0 0.00 0.00 0.00 99 1016.4
20260504070114 12 35 0.0 0.0 0.00 0.00 0.00 99 1017.7